This demonstration page uses our WeatherBlox Daily Observations layout. Learn more.

Left ArrowRight Arrow

Hourly Observations for July 24, 2021

Temp ( °F °C ) Dew Point ( °F °C ) Humidity (%) Winds ( mph kmh ) Pressure ( in mb ) Visibility ( mi km ) Precip ( " mm )
12:15 am 00:15 Clear 73 22.5 64 18 76 76 S 7 11 29.87 1011 10 16 N/A
12:35 am 00:35 Clear 74 23.6 64 17.6 69 69 S 7 11 29.86 1011 10 16 N/A
12:55 am 00:55 Clear 74 23.3 64 17.5 70 70 S 7 11 29.85 1011 10 16 N/A
1:15 am 01:15 Clear 73 23 63 17.3 70 70 S 7 11 29.86 1011 10 16 N/A
1:35 am 01:35 Clear 74 23.3 63 17.2 69 69 S 7 11 29.85 1011 10 16 N/A
1:55 am 01:55 Clear 73 23 63 17.2 70 70 SSW 8 13 29.86 1011 10 16 N/A
2:15 am 02:15 Clear 73 22.9 63 17.2 70 70 SSW 6 9 29.86 1011 10 16 N/A
2:35 am 02:35 Clear 72 22.2 63 17.2 73 73 SSW 6 9 29.87 1011 10 16 N/A
2:55 am 02:55 Clear 72 22.1 63 17.2 74 74 SSW 7 11 29.87 1012 10 16 N/A
3:15 am 03:15 Clear 71 21.8 63 17.1 75 75 SSW 8 13 29.87 1012 10 16 N/A
3:35 am 03:35 Clear 71 21.5 63 17.1 76 76 SSW 6 9 29.87 1012 10 16 N/A
3:55 am 03:55 Clear 71 21.5 63 17.1 76 76 SSW 7 11 29.87 1012 10 16 N/A
4:15 am 04:15 Clear 71 21.5 63 17.1 76 76 SW 6 9 29.87 1012 10 16 N/A
4:35 am 04:35 Clear 71 21.5 63 17 76 76 SSW 7 11 29.87 1012 10 16 N/A
4:55 am 04:55 Clear 70 21.3 63 17 77 77 SSW 6 9 29.88 1012 10 16 N/A
5:15 am 05:15 Clear 70 21.1 62 16.8 77 77 SSW 8 13 29.88 1012 10 16 N/A
5:35 am 05:35 Clear 70 21.1 62 16.7 76 76 SSW 9 15 29.87 1011 10 16 N/A
5:55 am 05:55 Clear 69 20.8 62 16.7 77 77 SSW 7 11 29.87 1012 10 16 N/A
6:15 am 06:15 Clear 69 20.7 62 16.6 77 77 SSW 7 11 29.88 1012 10 16 N/A
6:35 am 06:35 Sunny 69 20.6 62 16.8 79 79 SSW 9 15 29.87 1012 10 16 N/A
6:55 am 06:55 Sunny 70 21 62 16.7 77 77 SSW 8 13 29.88 1012 10 16 N/A
7:15 am 07:15 Sunny 71 21.4 63 17 76 76 SSW 9 15 29.88 1012 10 16 N/A
7:35 am 07:35 Sunny 72 22.2 63 17.1 73 73 SSW 9 15 29.87 1011 10 16 N/A
7:55 am 07:55 Sunny 73 23 64 17.5 71 71 SW 9 15 29.87 1012 10 16 N/A
8:15 am 08:15 Sunny 75 23.9 64 18 70 70 SW 9 15 29.87 1011 10 16 N/A
8:35 am 08:35 Sunny 75 23.8 64 17.9 70 70 SW 8 13 29.87 1011 10 16 N/A
8:55 am 08:55 Sunny 76 24.4 65 18.4 69 69 SW 9 15 29.87 1012 10 16 N/A
9:15 am 09:15 Sunny 78 25.7 65 18.6 65 65 SW 9 15 29.87 1012 10 16 N/A
9:35 am 09:35 Sunny 79 26.2 66 19 65 65 WSW 7 11 29.87 1011 10 16 N/A
9:55 am 09:55 Sunny 79 26.1 66 18.7 64 64 W 5 7 29.88 1012 10 16 N/A
10:15 am 10:15 Sunny 78 25.8 66 18.7 65 65 W 5 7 29.88 1012 10 16 N/A
10:35 am 10:35 Mostly Cloudy 80 26.4 66 18.8 63 63 WNW 3 6 29.88 1012 10 16 N/A
10:55 am 10:55 Mostly Cloudy 80 26.6 66 18.8 62 62 N N/A 29.88 1012 10 16 N/A
11:15 am 11:15 Partly Cloudy 80 26.6 66 19.1 64 64 N 6 9 29.88 1012 10 16 N/A
11:35 am 11:35 Sunny 81 27.3 67 19.5 62 62 N 5 7 29.88 1012 10 16 N/A
11:55 am 11:55 Sunny 81 27.4 67 19.3 61 61 NNE 9 15 29.90 1012 10 16 N/A
12:15 pm 12:15 Sunny 82 28 68 20 62 62 ENE 9 15 29.89 1012 10 16 N/A
12:35 pm 12:35 Sunny 82 27.7 68 19.9 63 63 ENE 9 15 29.90 1012 10 16 N/A
12:55 pm 12:55 Sunny 83 28.1 69 20.3 63 63 NE 10 17 29.89 1012 10 16 N/A
1:15 pm 13:15 Partly Cloudy 83 28.5 69 20.8 63 63 NE 7 11 29.89 1012 10 16 N/A
1:35 pm 13:35 Mostly Cloudy 83 28.5 68 20 60 60 ENE 10 17 29.89 1012 10 16 N/A
1:50 pm 13:50 Cloudy 83 28.6 69 20.7 62 62 E 10 17 29.89 1012 10 16 N/A
2:15 pm 14:15 Cloudy 83 28.3 69 20.8 64 64 NE 9 15 29.89 1012 10 16 N/A
2:35 pm 14:35 Cloudy 84 28.7 70 21 63 63 NE 9 15 29.89 1012 10 16 N/A
2:55 pm 14:55 Mostly Cloudy 85 29.4 71 21.6 63 63 NE 10 17 29.88 1012 10 16 N/A
3:15 pm 15:15 Mostly Cloudy 84 29 71 21.5 64 64 NE 9 15 29.88 1012 10 16 N/A
3:35 pm 15:35 Partly Cloudy 85 29.6 71 21.8 63 63 NE 12 19 29.88 1012 10 16 N/A
3:55 pm 15:55 Sunny 86 29.8 72 22.3 64 64 NE 10 17 29.88 1012 10 16 N/A
4:15 pm 16:15 Sunny 86 30.2 72 22.2 62 62 ENE 10 17 29.88 1012 10 16 N/A
4:35 pm 16:35 Sunny 86 30.1 73 22.5 64 64 NE 13 20 29.88 1012 10 16 N/A
4:55 pm 16:55 Partly Cloudy 85 29.3 72 22.3 66 66 NE 14 22 29.88 1012 10 16 N/A
5:15 pm 17:15 Sunny 86 30.1 73 22.5 64 64 NE 13 20 29.87 1011 10 16 N/A
5:35 pm 17:35 Sunny 85 29.5 73 22.5 66 66 NE 10 17 29.86 1011 10 16 N/A
5:55 pm 17:55 Partly Cloudy 85 29.5 73 22.6 66 66 NE 10 17 29.86 1011 10 16 N/A
6:15 pm 18:15 Mostly Cloudy 84 29 72 22.1 66 66 NE 15 24 29.87 1011 10 16 N/A
6:35 pm 18:35 Partly Cloudy 84 28.7 70 21.1 64 64 NE 15 24 29.87 1011 10 16 N/A
6:55 pm 18:55 Partly Cloudy 83 28.2 70 21.3 66 66 NE 9 15 29.87 1012 10 16 N/A
7:15 pm 19:15 Cloudy 82 28 71 21.7 69 69 ENE 9 15 29.88 1012 10 16 N/A
7:35 pm 19:35 Cloudy 82 27.7 72 22 71 71 NE 9 15 29.89 1012 10 16 N/A
7:55 pm 19:55 Mostly Cloudy 81 27.3 71 21.4 70 70 ENE 7 11 29.90 1012 10 16 N/A
8:15 pm 20:15 Cloudy 81 27 71 21.7 73 73 ENE 13 20 29.90 1013 10 16 N/A
8:35 pm 20:35 Cloudy with Thunderstorms 78 25.8 69 20.6 73 73 ENE 12 19 29.91 1013 10 16 N/A
8:55 pm 20:55 Mostly Cloudy with Nearby Thunderstorms 77 25.1 68 20 73 73 NE 12 19 29.92 1013 10 16 N/A
9:15 pm 21:15 Cloudy 77 24.9 70 21.3 80 80 N N/A 29.92 1013 10 16 N/A
9:35 pm 21:35 Windy with Storms Likely 75 24.1 67 19.7 77 77 E 21 33 29.93 1014 7 11 N/A
9:55 pm 21:55 Cloudy with Thunderstorms 74 23.1 68 19.8 82 82 NE 14 22 29.97 1015 10 16 N/A
10:15 pm 22:15 Cloudy with Thunderstorms 73 22.7 67 19.3 81 81 ENE 10 17 29.94 1014 10 16 N/A
10:35 pm 22:35 Mostly Cloudy with Nearby Thunderstorms 73 22.5 67 19.6 84 84 E 9 15 29.97 1015 10 16 N/A
10:55 pm 22:55 Partly Cloudy 72 22.2 69 20.3 89 89 NE 3 6 29.99 1016 10 16 N/A
11:15 pm 23:15 Clear with Nearby Thunderstorms 72 22.2 69 20.5 90 90 ESE 3 6 29.99 1016 10 16 N/A
11:35 pm 23:35 Clear with Nearby Thunderstorms 72 22 69 20.4 91 91 NNE 5 7 29.98 1015 10 16 N/A
11:55 pm 23:55 Partly Cloudy 71 21.8 69 20.5 92 92 NNE 6 9 29.97 1015 10 16 N/A

Powered by AerisWeather